Location: College Rock
(37.2713°N, 119.1740°W)
Time: 13:45:04
(UTC+00:00)

Cosmos 1315 Rocket - Pass Details

Date: 29 October 2020
Orbit: 530 x 567 km, 81.2° (Epoch: 01 December)

Event Time Altitude Azimuth Distance (km) Brightness Sun altitude
Rises 13:17:37 0° 354° (N) 2,766 6.3 -12.7°
Reaches altitude 10° 13:19:50 10° 357° (N) 1,868 5.4 -12.3°
Maximum altitude 13:23:56 65° 80° (E) 626 3.3 -11.5°
Drops below altitude 10° 13:28:01 10° 163° (SSE) 1,859 5.9 -10.7°
Sets 13:30:12 0° 166° (SSE) 2,750 6.7 -10.3°
